Torna al catalogo

COSMOS 2251 DEB

AttivoLEO
NORAD 34031·DEBRIS·🇷🇺 Russia

Lanciato Jun 16, 1993 da Plesetsk Cosmodrome

Loading…

Prossimi Passaggi (prossime 24 ore)

TLE

AggiornatoSource: Space-Track

Epoca: Sep 14, 2026, 11:53 UTC

1 34031U 93036HS  26257.49554294  .00002443  00000-0  49106-3 0  9992
2 34031  74.0133 327.8564 0022706  13.8287 358.5365 14.62025554925939

Traccia COSMOS 2251 DEB in tempo reale con AllMySat

Download on the App Store